FALCON 9 R/B, 62719

Orbit data source: Space-Track

FALCON 9 R/B, 62719 is space debris in HEO originally from a launch on Wed, 15 Jan 2025 UTC launched from the Air Force Eastern Test Range (AFETR). Debris objects in space refer to the collection of defunct objects orbiting the Earth. Examples of debris include non-operational satellites, rocket bodies, and fragments generated from explosions, collisions, or faulty payload assembly.

Loading next visibility...
Identifier
62719, 2025-010D
Orbit
HEO
Country
Flag of USUS
Related business
Manufacturer
SpaceX
Mission
Spacecraft
Bus & Motor
F9ST2, Unknown motor
Mass
~4,000 kg wet, ~4,000 kg dry
Launch date (UTC)
2025-01-15 (2 years ago)
Launch vehicle
Unknown
Launch site
Air Force Eastern Test Range (AFETR)
Object type
Payload
Rocket body
Debris
Shape & HBR
Cyl, 8.0 m
Radar Cross Section
39.980 m²

Expand to show TLE details & history
Last TLE update: 1 month ago

TLE from 1 month ago
0 FALCON 9 R/B
1 62719U 25010D   26226.39285003 -.00003969  00000-0  00000-0 0  9999
2 62719  12.9402 286.6581 4538426 255.5778  69.9176  0.05909371   240
Epoch: 2026-08-14T09:25Z
TLE epoch observation values (Epoch: 2026-08-14T09:25:42.242Z)
Latitude
3.58004°
Longitude
-159.57573°
Altitude
298,601.512 km
Speed
1.087 km/s
True Right ascension
20h 18m 40s
True Declination
3° 34' 46"
Sunlit
Object was in daylight at epoch
Visualization orbit readout
Latitude
Unknown
Longitude
Unknown
Altitude
Unknown
Speed
Unknown
Apparent Right ascension
Unknown
Apparent Declination
Unknown
Sunlit
N/A
Visualization observer readout
Local Sidereal Time
17:50:32
Azimuth
Unknown
Elevation
Unknown
Doppler factor
Unknown
Orbital elements
Apogee altitude
398,408.018 km
Perigee altitude
145,685.748 km
Semi-major axis
278,425.02 km
Eccentricity
0.45384
Inclination
12.9402°
RAAN
286.6581°
Arg. of periapsis
255.5778°
True anomaly
122.03367°
Mean anomaly
69.9176°
Eccentric anomaly
95.78828°
Mean motion
0.01477 °/min
Orbital period
24,368.1 mins
BSTAR
0
Loading maneuver chart data...
Computing Atmospheric mass density...
Loading historical data...
Loading historical data...
Loading historical data...
Loading historical data...
Loading historical data...
Loading historical data...
Loading historical data...
Other satellites on launch #10 in the year 2025 (2025-01-15 UTC)

Documentation

Showing up to 5 results
|